SNAP-3 EDDIE

Last updated on Tue Jul 01 2025 00:03:44 GMT+0000 (Coordinated Universal Time)

1 40972U 15058J 25181.41707554 .00012542 00000+0 50107-3 0 9990 2 40972 64.7560 189.6005 0086336 191.0129 168.9112 15.22017971 64957
UTC large
Height (km)
Speed (km/s)
/
Latitude / Longitude
Inclination (degrees)
Orbital Period (minutes)
Azimuth
Elevation
Range (km)
Doppler Factor

Next 0 passes for location: London (51.5072 / 0.1276)

Sorry there are no passes over London.